Time,TemperatureF,DewpointF,PressureIn,WindDirection,WindDirectionDegrees,WindSpeedMPH,WindSpeedGustMPH,Humidity,HourlyPrecipIn,Conditions,Clouds,dailyrainin,SoftwareType,DateUTC
2013-04-02 00:00:00,43.4,24.0,29.89,WNW,297,10.0,19.0,46,0.00,,---,0.01,VWS V14.01,2013-04-02 04:00:00,
2013-04-02 00:06:00,43.3,22.9,29.89,West,267,12.0,21.0,44,0.00,,---,0.00,VWS V14.01,2013-04-02 04:06:00,
2013-04-02 00:11:00,43.1,22.7,29.90,NW,304,3.0,21.0,44,0.00,,---,0.00,VWS V14.01,2013-04-02 04:11:00,
2013-04-02 00:16:00,42.7,23.4,29.91,West,269,5.0,21.0,46,0.00,,---,0.00,VWS V14.01,2013-04-02 04:16:00,
2013-04-02 00:21:00,42.2,22.9,29.91,WNW,300,8.0,21.0,46,0.00,,---,0.00,VWS V14.01,2013-04-02 04:21:00,
2013-04-02 00:26:00,41.7,23.5,29.92,NW,310,7.0,21.0,48,0.00,,---,0.00,VWS V14.01,2013-04-02 04:26:00,
2013-04-02 00:30:00,41.4,23.7,29.92,NNW,340,10.0,21.0,49,0.00,,---,0.00,VWS V14.01,2013-04-02 04:30:00,
2013-04-02 00:31:00,41.3,23.6,29.92,SW,222,4.0,10.0,49,0.00,,---,0.00,VWS V14.01,2013-04-02 04:31:00,
2013-04-02 00:36:00,41.0,24.3,29.92,WNW,300,5.0,12.0,51,0.00,,---,0.00,VWS V14.01,2013-04-02 04:36:00,
2013-04-02 00:41:00,40.8,24.1,29.92,NNW,335,8.0,12.0,51,0.00,,---,0.00,VWS V14.01,2013-04-02 04:41:00,
2013-04-02 00:46:00,40.6,24.4,29.93,West,271,1.0,13.0,52,0.00,,---,0.00,VWS V14.01,2013-04-02 04:46:00,
2013-04-02 00:51:00,40.4,24.6,29.93,North,354,2.0,13.0,53,0.00,,---,0.00,VWS V14.01,2013-04-02 04:51:00,
2013-04-02 00:56:00,40.4,24.6,29.93,NW,326,7.0,13.0,53,0.00,,---,0.00,VWS V14.01,2013-04-02 04:56:00,
2013-04-02 01:00:00,40.3,25.0,29.93,WNW,290,5.0,13.0,54,0.00,,---,0.00,VWS V14.01,2013-04-02 05:00:00,
2013-04-02 01:01:00,40.2,24.0,29.94,NW,314,2.0,13.0,52,0.00,,---,0.00,VWS V14.01,2013-04-02 05:01:00,
2013-04-02 01:07:00,40.1,21.0,29.94,ENE,64,6.0,17.0,46,0.00,,---,0.00,VWS V14.01,2013-04-02 05:07:00,
2013-04-02 01:12:00,40.0,21.4,29.94,WNW,300,7.0,17.0,47,0.00,,---,0.00,VWS V14.01,2013-04-02 05:12:00,
2013-04-02 01:17:00,39.8,22.7,29.95,NNE,19,5.0,17.0,50,0.00,,---,0.00,VWS V14.01,2013-04-02 05:17:00,
2013-04-02 01:22:00,39.6,22.5,29.95,NW,321,9.0,17.0,50,0.00,,---,0.00,VWS V14.01,2013-04-02 05:22:00,
2013-04-02 01:27:00,39.4,22.8,29.95,SW,236,3.0,17.0,51,0.00,,---,0.00,VWS V14.01,2013-04-02 05:27:00,
2013-04-02 01:30:00,39.2,22.6,29.95,WNW,295,4.0,17.0,51,0.00,,---,0.00,VWS V14.01,2013-04-02 05:30:00,
2013-04-02 01:32:00,39.2,23.1,29.95,WNW,291,5.0,13.0,52,0.00,,---,0.00,VWS V14.01,2013-04-02 05:32:00,
2013-04-02 01:37:00,39.0,22.4,29.96,WNW,292,8.0,13.0,51,0.00,,---,0.00,VWS V14.01,2013-04-02 05:37:00,
2013-04-02 01:42:00,38.9,22.8,29.96,WNW,283,8.0,13.0,52,0.00,,---,0.00,VWS V14.01,2013-04-02 05:42:00,
2013-04-02 01:47:00,38.8,23.1,29.96,NW,325,4.0,13.0,53,0.00,,---,0.00,VWS V14.01,2013-04-02 05:47:00,
2013-04-02 01:52:00,38.6,23.0,29.96,SW,235,2.0,13.0,53,0.00,,---,0.00,VWS V14.01,2013-04-02 05:52:00,
2013-04-02 01:57:00,38.4,22.8,29.96,NW,319,5.0,13.0,53,0.00,,---,0.00,VWS V14.01,2013-04-02 05:57:00,
2013-04-02 02:00:00,38.3,22.7,29.96,West,261,4.0,13.0,53,0.00,,---,0.00,VWS V14.01,2013-04-02 06:00:00,
2013-04-02 02:02:00,38.3,22.2,29.96,NE,42,5.0,11.0,52,0.00,,---,0.00,VWS V14.01,2013-04-02 06:02:00,
2013-04-02 02:07:00,38.1,22.0,29.96,SW,233,2.0,15.0,52,0.00,,---,0.00,VWS V14.01,2013-04-02 06:07:00,
2013-04-02 02:12:00,38.1,22.0,29.96,WNW,299,6.0,15.0,52,0.00,,---,0.00,VWS V14.01,2013-04-02 06:12:00,
2013-04-02 02:17:00,38.0,22.0,29.96,West,259,0.0,15.0,52,0.00,,---,0.00,VWS V14.01,2013-04-02 06:17:00,
2013-04-02 02:22:00,37.8,21.8,29.96,West,266,7.0,15.0,52,0.00,,---,0.00,VWS V14.01,2013-04-02 06:22:00,
2013-04-02 02:27:00,37.8,21.8,29.97,WNW,287,5.0,15.0,52,0.00,,---,0.00,VWS V14.01,2013-04-02 06:27:00,
2013-04-02 02:30:00,37.7,21.7,29.96,NNE,23,9.0,15.0,52,0.00,,---,0.00,VWS V14.01,2013-04-02 06:30:00,
2013-04-02 02:32:00,37.7,21.2,29.97,WSW,243,2.0,10.0,51,0.00,,---,0.00,VWS V14.01,2013-04-02 06:32:00,
2013-04-02 02:37:00,37.7,19.3,29.96,NNW,344,4.0,11.0,47,0.00,,---,0.00,VWS V14.01,2013-04-02 06:37:00,
2013-04-02 02:42:00,37.7,19.8,29.96,West,271,4.0,11.0,48,0.00,,---,0.00,VWS V14.01,2013-04-02 06:42:00,
2013-04-02 02:54:00,37.5,19.6,29.96,WNW,295,8.0,13.0,48,0.00,,---,0.00,VWS V14.01,2013-04-02 06:54:00,
2013-04-02 03:00:00,37.5,19.6,29.96,WSW,245,4.0,14.0,48,0.00,,---,0.00,VWS V14.01,2013-04-02 07:00:00,
2013-04-02 03:30:00,36.9,20.9,29.96,NW,315,5.0,10.0,52,0.00,,---,0.00,VWS V14.01,2013-04-02 07:30:00,
2013-04-02 03:39:00,36.6,21.5,29.96,SSE,150,1.0,9.0,54,0.00,,---,0.00,VWS V14.01,2013-04-02 07:39:00,
2013-04-02 03:50:00,36.3,21.3,29.96,WNW,301,7.0,11.0,54,0.00,,---,0.00,VWS V14.01,2013-04-02 07:50:00,
2013-04-02 03:56:00,36.1,21.1,29.97,WNW,303,4.0,11.0,54,0.00,,---,0.00,VWS V14.01,2013-04-02 07:56:00,
2013-04-02 04:00:00,36.1,21.1,29.97,West,265,4.0,11.0,54,0.00,,---,0.00,VWS V14.01,2013-04-02 08:00:00,
2013-04-02 04:01:00,36.1,21.1,29.97,NNE,26,4.0,6.0,54,0.00,,---,0.00,VWS V14.01,2013-04-02 08:01:00,
2013-04-02 04:07:00,35.9,20.9,29.97,WSW,251,1.0,8.0,54,0.00,,---,0.00,VWS V14.01,2013-04-02 08:07:00,
2013-04-02 04:12:00,35.9,20.9,29.97,West,269,3.0,8.0,54,0.00,,---,0.00,VWS V14.01,2013-04-02 08:12:00,
2013-04-02 04:17:00,35.7,20.7,29.97,WNW,300,1.0,8.0,54,0.00,,---,0.00,VWS V14.01,2013-04-02 08:17:00,
2013-04-02 04:22:00,35.6,20.6,29.97,West,281,2.0,8.0,54,0.00,,---,0.00,VWS V14.01,2013-04-02 08:22:00,
2013-04-02 04:27:00,35.5,20.5,29.97,WNW,292,3.0,8.0,54,0.00,,---,0.00,VWS V14.01,2013-04-02 08:27:00,
2013-04-02 04:30:00,35.6,20.2,29.97,North,2,0.0,8.0,53,0.00,,---,0.00,VWS V14.01,2013-04-02 08:30:00,
2013-04-02 04:32:00,35.6,20.2,29.97,WNW,296,5.0,6.0,53,0.00,,---,0.00,VWS V14.01,2013-04-02 08:32:00,
2013-04-02 04:37:00,35.7,20.3,29.97,NW,309,2.0,6.0,53,0.00,,---,0.00,VWS V14.01,2013-04-02 08:37:00,
2013-04-02 04:42:00,35.8,19.9,29.97,West,262,2.0,7.0,52,0.00,,---,0.00,VWS V14.01,2013-04-02 08:42:00,
2013-04-02 04:47:00,35.9,19.5,29.98,WNW,283,2.0,7.0,51,0.00,,---,0.00,VWS V14.01,2013-04-02 08:47:00,
2013-04-02 04:52:00,35.9,19.5,29.98,NW,311,1.0,7.0,51,0.00,,---,0.00,VWS V14.01,2013-04-02 08:52:00,
2013-04-02 04:57:00,36.0,20.5,29.98,WSW,257,1.0,7.0,53,0.00,,---,0.00,VWS V14.01,2013-04-02 08:57:00,
2013-04-02 05:00:00,36.0,22.7,29.98,WSW,252,2.0,7.0,58,0.00,,---,0.00,VWS V14.01,2013-04-02 09:00:00,
2013-04-02 05:02:00,36.0,22.7,29.98,West,269,2.0,3.0,58,0.00,,---,0.00,VWS V14.01,2013-04-02 09:02:00,
2013-04-02 05:07:00,35.9,22.2,29.98,WSW,250,4.0,5.0,57,0.00,,---,0.00,VWS V14.01,2013-04-02 09:07:00,
2013-04-02 05:12:00,35.9,21.3,29.98,WNW,293,3.0,5.0,55,0.00,,---,0.00,VWS V14.01,2013-04-02 09:12:00,
2013-04-02 05:17:00,35.8,21.2,29.99,West,275,4.0,5.0,55,0.00,,---,0.00,VWS V14.01,2013-04-02 09:17:00,
2013-04-02 05:22:00,35.9,20.9,29.99,West,269,6.0,7.0,54,0.00,,---,0.00,VWS V14.01,2013-04-02 09:22:00,
2013-04-02 05:27:00,35.9,21.3,29.99,West,271,4.0,7.0,55,0.00,,---,0.00,VWS V14.01,2013-04-02 09:27:00,
2013-04-02 05:30:00,35.9,20.5,29.99,NW,313,2.0,7.0,53,0.00,,---,0.00,VWS V14.01,2013-04-02 09:30:00,
2013-04-02 05:32:00,36.0,20.1,29.99,West,260,4.0,8.0,52,0.00,,---,0.00,VWS V14.01,2013-04-02 09:32:00,
2013-04-02 05:37:00,36.0,20.1,29.99,West,279,4.0,11.0,52,0.00,,---,0.00,VWS V14.01,2013-04-02 09:37:00,
2013-04-02 05:42:00,36.0,20.1,29.99,West,268,7.0,11.0,52,0.00,,---,0.00,VWS V14.01,2013-04-02 09:42:00,
2013-04-02 05:47:00,35.9,20.5,29.99,West,264,5.0,11.0,53,0.00,,---,0.00,VWS V14.01,2013-04-02 09:47:00,
2013-04-02 05:52:00,35.8,21.2,30.00,West,269,4.0,11.0,55,0.00,,---,0.00,VWS V14.01,2013-04-02 09:52:00,
2013-04-02 05:57:00,35.2,21.1,30.00,WSW,245,2.0,11.0,56,0.00,,---,0.00,VWS V14.01,2013-04-02 09:57:00,
2013-04-02 06:00:00,34.9,20.8,30.00,SW,224,4.0,11.0,56,0.00,,---,0.00,VWS V14.01,2013-04-02 10:00:00,
2013-04-02 06:02:00,34.8,20.7,30.00,SW,233,4.0,4.0,56,0.00,,---,0.00,VWS V14.01,2013-04-02 10:02:00,
2013-04-02 06:07:00,34.6,21.4,30.00,WSW,257,2.0,6.0,58,0.00,,---,0.00,VWS V14.01,2013-04-02 10:07:00,
2013-04-02 06:12:00,34.5,22.1,30.00,WSW,251,3.0,6.0,60,0.00,,---,0.00,VWS V14.01,2013-04-02 10:12:00,
2013-04-02 06:17:00,34.5,22.1,30.01,WSW,238,4.0,6.0,60,0.00,,---,0.00,VWS V14.01,2013-04-02 10:17:00,
2013-04-02 06:23:00,34.4,22.0,30.01,WSW,245,3.0,6.0,60,0.00,,---,0.00,VWS V14.01,2013-04-02 10:23:00,
2013-04-02 06:28:00,34.5,21.7,30.01,West,262,3.0,6.0,59,0.00,,---,0.00,VWS V14.01,2013-04-02 10:28:00,
2013-04-02 06:30:00,34.5,21.7,30.01,WSW,239,3.0,6.0,59,0.00,,---,0.00,VWS V14.01,2013-04-02 10:30:00,
2013-04-02 06:33:00,34.5,21.7,30.01,SW,225,3.0,6.0,59,0.00,,---,0.00,VWS V14.01,2013-04-02 10:33:00,
2013-04-02 06:38:00,34.6,22.2,30.01,West,262,5.0,7.0,60,0.00,,---,0.00,VWS V14.01,2013-04-02 10:38:00,
2013-04-02 06:43:00,34.9,22.4,30.01,West,267,5.0,7.0,60,0.00,,---,0.00,VWS V14.01,2013-04-02 10:43:00,
2013-04-02 06:48:00,35.1,23.4,30.02,WSW,250,5.0,8.0,62,0.00,,---,0.00,VWS V14.01,2013-04-02 10:48:00,
2013-04-02 06:53:00,35.3,22.4,30.02,West,265,4.0,8.0,59,0.00,,---,0.00,VWS V14.01,2013-04-02 10:53:00,
2013-04-02 06:58:00,35.6,21.5,30.02,WSW,248,5.0,8.0,56,0.00,,---,0.00,VWS V14.01,2013-04-02 10:58:00,
2013-04-02 07:00:00,35.8,21.6,30.02,SW,228,6.0,8.0,56,0.00,,---,0.00,VWS V14.01,2013-04-02 11:00:00,
2013-04-02 07:03:00,36.0,21.4,30.02,West,270,4.0,6.0,55,0.00,,---,0.00,VWS V14.01,2013-04-02 11:03:00,
2013-04-02 07:08:00,36.2,22.0,30.02,WSW,252,6.0,7.0,56,0.00,,---,0.00,VWS V14.01,2013-04-02 11:08:00,
2013-04-02 07:13:00,36.5,20.6,30.03,SSW,210,3.0,8.0,52,0.00,,---,0.00,VWS V14.01,2013-04-02 11:13:00,
2013-04-02 07:18:00,36.7,21.2,30.03,WSW,245,4.0,8.0,53,0.00,,---,0.00,VWS V14.01,2013-04-02 11:18:00,
2013-04-02 07:23:00,36.9,21.8,30.03,West,277,3.0,9.0,54,0.00,,---,0.00,VWS V14.01,2013-04-02 11:23:00,
2013-04-02 07:28:00,37.0,21.5,30.03,SW,225,3.0,9.0,53,0.00,,---,0.00,VWS V14.01,2013-04-02 11:28:00,
2013-04-02 07:30:00,37.0,21.0,30.03,WSW,250,4.0,9.0,52,0.00,,---,0.00,VWS V14.01,2013-04-02 11:30:00,
2013-04-02 07:33:00,37.1,21.1,30.03,SSW,207,5.0,9.0,52,0.00,,---,0.00,VWS V14.01,2013-04-02 11:33:00,
2013-04-02 07:38:00,37.3,21.3,30.04,WSW,240,8.0,10.0,52,0.00,,---,0.00,VWS V14.01,2013-04-02 11:38:00,
2013-04-02 07:43:00,37.3,21.8,30.04,NW,311,2.0,11.0,53,0.00,,---,0.00,VWS V14.01,2013-04-02 11:43:00,
2013-04-02 07:48:00,37.4,21.9,30.04,West,268,6.0,11.0,53,0.00,,---,0.00,VWS V14.01,2013-04-02 11:48:00,
2013-04-02 07:53:00,37.3,22.2,30.04,SW,224,9.0,11.0,54,0.00,,---,0.00,VWS V14.01,2013-04-02 11:53:00,
2013-04-02 07:58:00,37.5,21.9,30.04,West,264,7.0,11.0,53,0.00,,---,0.00,VWS V14.01,2013-04-02 11:58:00,
2013-04-02 08:00:00,37.6,21.6,30.04,WSW,258,4.0,11.0,52,0.00,,---,0.00,VWS V14.01,2013-04-02 12:00:00,
2013-04-02 08:03:00,37.6,21.1,30.04,WNW,299,7.0,12.0,51,0.00,,---,0.00,VWS V14.01,2013-04-02 12:03:00,
2013-04-02 08:08:00,37.7,19.8,30.05,WNW,283,7.0,15.0,48,0.00,,---,0.00,VWS V14.01,2013-04-02 12:08:00,
2013-04-02 08:13:00,37.8,19.4,30.05,West,274,11.0,15.0,47,0.00,,---,0.00,VWS V14.01,2013-04-02 12:13:00,
2013-04-02 08:18:00,38.1,20.2,30.05,NW,306,8.0,15.0,48,0.00,,---,0.00,VWS V14.01,2013-04-02 12:18:00,
2013-04-02 08:23:00,38.1,19.7,30.05,WSW,257,9.0,15.0,47,0.00,,---,0.00,VWS V14.01,2013-04-02 12:23:00,
2013-04-02 08:28:00,38.2,19.8,30.05,NW,309,6.0,16.0,47,0.00,,---,0.00,VWS V14.01,2013-04-02 12:28:00,
2013-04-02 08:30:00,38.4,19.4,30.05,SW,235,6.0,16.0,46,0.00,,---,0.00,VWS V14.01,2013-04-02 12:30:00,
2013-04-02 08:33:00,38.7,19.7,30.05,SW,226,7.0,11.0,46,0.00,,---,0.00,VWS V14.01,2013-04-02 12:33:00,
2013-04-02 08:38:00,38.8,18.8,30.05,WSW,252,8.0,16.0,44,0.00,,---,0.00,VWS V14.01,2013-04-02 12:38:00,
2013-04-02 08:43:00,39.1,18.0,30.06,West,271,14.0,16.0,42,0.00,,---,0.00,VWS V14.01,2013-04-02 12:43:00,
2013-04-02 08:48:00,39.3,18.7,30.06,WNW,302,14.0,16.0,43,0.00,,---,0.00,VWS V14.01,2013-04-02 12:48:00,
2013-04-02 08:53:00,39.5,18.3,30.06,NNW,338,13.0,18.0,42,0.00,,---,0.00,VWS V14.01,2013-04-02 12:53:00,
2013-04-02 08:58:00,39.5,17.2,30.06,SW,217,6.0,18.0,40,0.00,,---,0.00,VWS V14.01,2013-04-02 12:58:00,
2013-04-02 09:03:00,39.7,17.4,30.06,WNW,282,8.0,18.0,40,0.00,,---,0.00,VWS V14.01,2013-04-02 13:03:00,
2013-04-02 09:08:00,39.7,17.4,30.06,WNW,296,10.0,23.0,40,0.00,,---,0.00,VWS V14.01,2013-04-02 13:08:00,
2013-04-02 09:13:00,39.8,15.0,30.05,WNW,286,9.0,23.0,36,0.00,,---,0.00,VWS V14.01,2013-04-02 13:13:00,
2013-04-02 09:18:00,40.1,17.1,30.05,NW,304,11.0,23.0,39,0.00,,---,0.00,VWS V14.01,2013-04-02 13:18:00,
2013-04-02 09:24:00,40.0,16.5,30.05,WNW,298,14.0,23.0,38,0.00,,---,0.00,VWS V14.01,2013-04-02 13:24:00,
2013-04-02 09:29:00,40.2,17.2,30.05,West,259,14.0,23.0,39,0.00,,---,0.00,VWS V14.01,2013-04-02 13:29:00,
2013-04-02 09:30:00,40.2,17.2,30.05,WSW,256,19.0,23.0,39,0.00,,---,0.00,VWS V14.01,2013-04-02 13:30:00,
2013-04-02 09:34:00,40.4,18.0,30.05,WNW,283,14.0,19.0,40,0.00,,---,0.00,VWS V14.01,2013-04-02 13:34:00,
2013-04-02 09:39:00,40.4,17.4,30.05,NW,304,12.0,22.0,39,0.00,,---,0.00,VWS V14.01,2013-04-02 13:39:00,
2013-04-02 09:44:00,40.6,17.6,30.05,West,262,11.0,22.0,39,0.00,,---,0.00,VWS V14.01,2013-04-02 13:44:00,
2013-04-02 09:49:00,40.6,17.6,30.05,West,271,12.0,22.0,39,0.00,,---,0.00,VWS V14.01,2013-04-02 13:49:00,
2013-04-02 09:54:00,40.9,17.9,30.05,West,281,9.0,23.0,39,0.00,,---,0.00,VWS V14.01,2013-04-02 13:54:00,
2013-04-02 09:59:00,41.2,18.1,30.05,West,268,8.0,23.0,39,0.00,,---,0.00,VWS V14.01,2013-04-02 13:59:00,
2013-04-02 10:00:00,41.1,18.6,30.05,West,276,23.0,23.0,40,0.00,,---,0.00,VWS V14.01,2013-04-02 14:00:00,
2013-04-02 10:04:00,41.3,17.0,30.05,WNW,296,10.0,23.0,37,0.00,,---,0.00,VWS V14.01,2013-04-02 14:04:00,
2013-04-02 10:09:00,41.3,17.0,30.05,WSW,255,14.0,23.0,37,0.00,,---,0.00,VWS V14.01,2013-04-02 14:09:00,
2013-04-02 10:14:00,41.5,18.4,30.05,West,281,13.0,23.0,39,0.00,,---,0.00,VWS V14.01,2013-04-02 14:14:00,
2013-04-02 10:19:00,41.8,18.1,30.05,WSW,258,12.0,23.0,38,0.00,,---,0.00,VWS V14.01,2013-04-02 14:19:00,
2013-04-02 10:24:00,42.1,19.0,30.05,WNW,285,14.0,23.0,39,0.00,,---,0.00,VWS V14.01,2013-04-02 14:24:00,
2013-04-02 10:29:00,42.1,19.0,30.05,WSW,248,11.0,23.0,39,0.00,,---,0.00,VWS V14.01,2013-04-02 14:29:00,
2013-04-02 10:34:00,42.6,20.0,30.05,West,269,13.0,21.0,40,0.00,,---,0.00,VWS V14.01,2013-04-02 14:34:00,
2013-04-02 10:39:00,42.4,18.0,30.05,WNW,292,16.0,21.0,37,0.00,,---,0.00,VWS V14.01,2013-04-02 14:39:00,
2013-04-02 10:44:00,42.2,17.2,30.05,WSW,250,7.0,21.0,36,0.00,,---,0.00,VWS V14.01,2013-04-02 14:44:00,
2013-04-02 10:49:00,42.5,16.8,30.05,West,278,11.0,22.0,35,0.00,,---,0.00,VWS V14.01,2013-04-02 14:49:00,
2013-04-02 10:54:00,42.7,17.6,30.05,WSW,253,16.0,22.0,36,0.00,,---,0.00,VWS V14.01,2013-04-02 14:54:00,
2013-04-02 10:59:00,42.5,16.8,30.05,WSW,237,9.0,26.0,35,0.00,,---,0.00,VWS V14.01,2013-04-02 14:59:00,
2013-04-02 11:00:00,42.5,16.8,30.05,West,274,10.0,26.0,35,0.00,,---,0.00,VWS V14.01,2013-04-02 15:00:00,
2013-04-02 11:04:00,42.5,18.1,30.04,WSW,243,11.0,20.0,37,0.00,,---,0.00,VWS V14.01,2013-04-02 15:04:00,
2013-04-02 11:09:00,42.4,16.0,30.04,WSW,239,14.0,27.0,34,0.00,,---,0.00,VWS V14.01,2013-04-02 15:09:00,
2013-04-02 11:15:00,42.5,17.4,30.04,WNW,300,10.0,27.0,36,0.00,,---,0.00,VWS V14.01,2013-04-02 15:15:00,
2013-04-02 11:20:00,43.1,17.3,30.04,WNW,286,10.0,27.0,35,0.00,,---,0.00,VWS V14.01,2013-04-02 15:20:00,
2013-04-02 11:25:00,43.1,17.3,30.04,West,266,18.0,27.0,35,0.00,,---,0.00,VWS V14.01,2013-04-02 15:25:00,
2013-04-02 11:30:00,43.3,14.7,30.04,NNW,334,16.0,31.0,31,0.00,,---,0.00,VWS V14.01,2013-04-02 15:30:00,
2013-04-02 11:35:00,43.1,16.0,30.04,West,267,12.0,25.0,33,0.00,,---,0.00,VWS V14.01,2013-04-02 15:35:00,
2013-04-02 11:40:00,43.3,16.8,30.04,West,264,16.0,25.0,34,0.00,,---,0.00,VWS V14.01,2013-04-02 15:40:00,
2013-04-02 11:45:00,43.3,15.4,30.04,SW,229,13.0,25.0,32,0.00,,---,0.00,VWS V14.01,2013-04-02 15:45:00,
2013-04-02 11:50:00,43.2,16.7,30.04,West,274,9.0,28.0,34,0.00,,---,0.00,VWS V14.01,2013-04-02 15:50:00,
2013-04-02 11:55:00,43.7,17.2,30.04,ESE,117,6.0,28.0,34,0.00,,---,0.00,VWS V14.01,2013-04-02 15:55:00,
2013-04-02 12:00:00,43.7,17.9,30.04,WNW,295,15.0,17.0,35,0.00,,---,0.00,VWS V14.01,2013-04-02 16:00:00,
2013-04-02 12:05:00,43.9,17.4,30.03,WSW,253,14.0,22.0,34,0.00,,---,0.00,VWS V14.01,2013-04-02 16:05:00,
2013-04-02 12:10:00,44.2,17.6,30.03,WSW,255,15.0,22.0,34,0.00,,---,0.00,VWS V14.01,2013-04-02 16:10:00,
2013-04-02 12:15:00,43.8,15.1,30.03,WSW,242,15.0,24.0,31,0.00,,---,0.00,VWS V14.01,2013-04-02 16:15:00,
2013-04-02 12:20:00,44.0,17.5,30.03,West,264,12.0,25.0,34,0.00,,---,0.00,VWS V14.01,2013-04-02 16:20:00,
2013-04-02 12:26:00,44.1,18.9,30.03,North,356,15.0,25.0,36,0.00,,---,0.00,VWS V14.01,2013-04-02 16:26:00,
2013-04-02 12:30:00,43.8,17.3,30.02,WSW,243,17.0,25.0,34,0.00,,---,0.00,VWS V14.01,2013-04-02 16:30:00,
2013-04-02 12:36:00,43.8,14.4,30.02,WSW,247,12.0,27.0,30,0.00,,---,0.00,VWS V14.01,2013-04-02 16:36:00,
2013-04-02 12:41:00,44.0,18.1,30.02,WNW,290,15.0,27.0,35,0.00,,---,0.00,VWS V14.01,2013-04-02 16:41:00,
2013-04-02 12:46:00,44.2,15.5,30.02,West,266,16.0,27.0,31,0.00,,---,0.00,VWS V14.01,2013-04-02 16:46:00,
2013-04-02 12:51:00,44.3,17.7,30.02,West,281,13.0,27.0,34,0.00,,---,0.00,VWS V14.01,2013-04-02 16:51:00,
2013-04-02 12:57:00,44.2,16.2,30.02,West,271,16.0,27.0,32,0.00,,---,0.00,VWS V14.01,2013-04-02 16:57:00,
2013-04-02 13:00:00,44.3,17.7,30.02,WSW,257,14.0,27.0,34,0.00,,---,0.00,VWS V14.01,2013-04-02 17:00:00,
2013-04-02 13:02:00,44.3,18.4,30.02,WSW,246,18.0,21.0,35,0.00,,---,0.00,VWS V14.01,2013-04-02 17:02:00,
2013-04-02 13:07:00,44.3,18.4,30.02,SSW,210,13.0,26.0,35,0.00,,---,0.00,VWS V14.01,2013-04-02 17:07:00,
2013-04-02 13:12:00,44.5,17.9,30.02,SW,236,13.0,27.0,34,0.00,,---,0.00,VWS V14.01,2013-04-02 17:12:00,
2013-04-02 13:17:00,44.5,17.9,30.01,SE,144,10.0,27.0,34,0.00,,---,0.00,VWS V14.01,2013-04-02 17:17:00,
2013-04-02 13:22:00,44.4,16.4,30.01,WSW,238,21.0,27.0,32,0.00,,---,0.00,VWS V14.01,2013-04-02 17:22:00,
2013-04-02 13:27:00,44.0,18.1,30.01,WNW,289,13.0,27.0,35,0.00,,---,0.00,VWS V14.01,2013-04-02 17:27:00,
2013-04-02 13:30:00,44.5,19.2,30.01,NE,36,7.0,27.0,36,0.00,,---,0.00,VWS V14.01,2013-04-02 17:30:00,
2013-04-02 13:32:00,44.9,18.2,30.01,WNW,288,9.0,14.0,34,0.00,,---,0.00,VWS V14.01,2013-04-02 17:32:00,
2013-04-02 13:37:00,44.5,16.5,30.01,WSW,250,9.0,20.0,32,0.00,,---,0.00,VWS V14.01,2013-04-02 17:37:00,
2013-04-02 13:42:00,45.2,17.1,30.01,WSW,252,15.0,22.0,32,0.00,,---,0.00,VWS V14.01,2013-04-02 17:42:00,
2013-04-02 13:47:00,44.7,18.1,30.01,WNW,283,16.0,23.0,34,0.00,,---,0.00,VWS V14.01,2013-04-02 17:47:00,
2013-04-02 13:52:00,44.5,16.5,30.00,WSW,237,18.0,29.0,32,0.00,,---,0.00,VWS V14.01,2013-04-02 17:52:00,
2013-04-02 13:57:00,44.9,18.2,30.01,WSW,255,16.0,29.0,34,0.00,,---,0.00,VWS V14.01,2013-04-02 17:57:00,
2013-04-02 14:00:00,45.3,17.9,30.01,WNW,293,15.0,29.0,33,0.00,,---,0.00,VWS V14.01,2013-04-02 18:00:00,
2013-04-02 14:03:00,45.3,18.6,30.01,WSW,240,20.0,20.0,34,0.00,,---,0.00,VWS V14.01,2013-04-02 18:03:00,
2013-04-02 14:08:00,45.6,17.5,30.00,West,277,17.0,23.0,32,0.00,,---,0.00,VWS V14.01,2013-04-02 18:08:00,
2013-04-02 14:13:00,44.9,16.8,30.01,SW,229,21.0,29.0,32,0.00,,---,0.00,VWS V14.01,2013-04-02 18:13:00,
2013-04-02 14:18:00,45.1,16.3,30.00,West,265,8.0,29.0,31,0.00,,---,0.00,VWS V14.01,2013-04-02 18:18:00,
2013-04-02 14:23:00,44.9,17.6,30.01,WSW,243,20.0,29.0,33,0.00,,---,0.00,VWS V14.01,2013-04-02 18:23:00,
2013-04-02 14:28:00,45.3,17.9,30.00,WSW,257,14.0,29.0,33,0.00,,---,0.00,VWS V14.01,2013-04-02 18:28:00,
2013-04-02 14:30:00,45.5,18.1,30.00,West,273,14.0,29.0,33,0.00,,---,0.00,VWS V14.01,2013-04-02 18:30:00,
2013-04-02 14:33:00,45.7,17.5,30.00,West,266,17.0,22.0,32,0.00,,---,0.00,VWS V14.01,2013-04-02 18:33:00,
2013-04-02 14:38:00,45.2,17.8,30.00,WSW,255,15.0,22.0,33,0.00,,---,0.00,VWS V14.01,2013-04-02 18:38:00,
2013-04-02 14:43:00,45.2,19.2,30.00,WSW,255,15.0,24.0,35,0.00,,---,0.00,VWS V14.01,2013-04-02 18:43:00,
2013-04-02 14:48:00,44.7,18.1,30.00,West,278,18.0,25.0,34,0.00,,---,0.00,VWS V14.01,2013-04-02 18:48:00,
2013-04-02 14:53:00,45.0,16.2,30.00,NNW,339,12.0,25.0,31,0.00,,---,0.00,VWS V14.01,2013-04-02 18:53:00,
2013-04-02 14:58:00,45.4,20.0,30.00,WSW,248,19.0,25.0,36,0.00,,---,0.00,VWS V14.01,2013-04-02 18:58:00,
2013-04-02 15:00:00,45.3,16.5,30.00,WSW,238,10.0,25.0,31,0.00,,---,0.00,VWS V14.01,2013-04-02 19:00:00,
2013-04-02 15:03:00,45.3,17.2,30.00,WSW,256,12.0,24.0,32,0.00,,---,0.00,VWS V14.01,2013-04-02 19:03:00,
2013-04-02 15:08:00,45.4,16.5,30.00,WSW,257,15.0,27.0,31,0.00,,---,0.00,VWS V14.01,2013-04-02 19:08:00,
2013-04-02 15:13:00,45.0,17.6,30.00,WSW,240,22.0,31.0,33,0.00,,---,0.00,VWS V14.01,2013-04-02 19:13:00,
2013-04-02 15:18:00,45.1,17.7,30.00,WSW,240,18.0,31.0,33,0.00,,---,0.00,VWS V14.01,2013-04-02 19:18:00,
2013-04-02 15:23:00,45.4,15.8,30.00,WSW,257,13.0,31.0,30,0.00,,---,0.00,VWS V14.01,2013-04-02 19:23:00,
2013-04-02 15:28:00,45.7,15.3,29.99,WSW,248,23.0,31.0,29,0.00,,---,0.00,VWS V14.01,2013-04-02 19:28:00,
2013-04-02 15:30:00,45.7,16.8,29.99,WSW,255,19.0,31.0,31,0.00,,---,0.00,VWS V14.01,2013-04-02 19:30:00,
2013-04-02 15:33:00,46.0,18.5,29.99,SW,234,16.0,25.0,33,0.00,,---,0.00,VWS V14.01,2013-04-02 19:33:00,
2013-04-02 15:38:00,45.8,16.1,29.99,South,183,13.0,25.0,30,0.00,,---,0.00,VWS V14.01,2013-04-02 19:38:00,
2013-04-02 15:43:00,45.7,19.0,29.99,NE,50,12.0,27.0,34,0.00,,---,0.00,VWS V14.01,2013-04-02 19:43:00,
2013-04-02 15:48:00,45.6,16.0,29.99,WSW,248,19.0,27.0,30,0.00,,---,0.00,VWS V14.01,2013-04-02 19:48:00,
2013-04-02 15:54:00,45.5,18.1,29.99,NW,304,11.0,27.0,33,0.00,,---,0.00,VWS V14.01,2013-04-02 19:54:00,
2013-04-02 15:59:00,45.4,18.7,29.99,SW,235,17.0,28.0,34,0.00,,---,0.00,VWS V14.01,2013-04-02 19:59:00,
2013-04-02 16:00:00,45.5,16.6,29.99,WNW,286,8.0,28.0,31,0.00,,---,0.00,VWS V14.01,2013-04-02 20:00:00,
2013-04-02 16:04:00,45.7,18.3,29.99,West,259,15.0,22.0,33,0.00,,---,0.00,VWS V14.01,2013-04-02 20:04:00,
2013-04-02 16:09:00,45.7,17.5,29.99,West,266,21.0,24.0,32,0.00,,---,0.00,VWS V14.01,2013-04-02 20:09:00,
2013-04-02 16:14:00,45.3,17.2,29.99,West,270,14.0,28.0,32,0.00,,---,0.00,VWS V14.01,2013-04-02 20:14:00,
2013-04-02 16:19:00,45.6,18.2,29.99,West,264,17.0,28.0,33,0.00,,---,0.00,VWS V14.01,2013-04-02 20:19:00,
2013-04-02 16:24:00,45.7,18.3,29.99,WSW,246,17.0,28.0,33,0.00,,---,0.00,VWS V14.01,2013-04-02 20:24:00,
2013-04-02 16:29:00,45.3,16.5,29.99,WSW,248,19.0,28.0,31,0.00,,---,0.00,VWS V14.01,2013-04-02 20:29:00,
2013-04-02 16:34:00,45.3,17.9,29.99,WNW,295,7.0,23.0,33,0.00,,---,0.00,VWS V14.01,2013-04-02 20:34:00,
2013-04-02 16:39:00,45.9,17.0,29.99,SSW,208,13.0,23.0,31,0.00,,---,0.00,VWS V14.01,2013-04-02 20:39:00,
2013-04-02 16:44:00,45.9,17.7,29.99,WSW,247,9.0,26.0,32,0.00,,---,0.00,VWS V14.01,2013-04-02 20:44:00,
2013-04-02 16:49:00,45.9,19.1,29.99,SSW,210,18.0,26.0,34,0.00,,---,0.00,VWS V14.01,2013-04-02 20:49:00,
2013-04-02 16:54:00,45.5,18.8,29.99,WSW,251,8.0,26.0,34,0.00,,---,0.00,VWS V14.01,2013-04-02 20:54:00,
2013-04-02 16:59:00,45.4,17.3,29.99,WSW,254,11.0,26.0,32,0.00,,---,0.00,VWS V14.01,2013-04-02 20:59:00,
2013-04-02 17:04:00,45.5,16.6,30.00,NW,321,14.0,23.0,31,0.00,,---,0.00,VWS V14.01,2013-04-02 21:04:00,
2013-04-02 17:09:00,45.1,15.5,30.00,WSW,255,23.0,30.0,30,0.00,,---,0.00,VWS V14.01,2013-04-02 21:09:00,
2013-04-02 17:14:00,45.1,16.3,30.00,WSW,254,12.0,30.0,31,0.00,,---,0.00,VWS V14.01,2013-04-02 21:14:00,
2013-04-02 17:19:00,45.2,14.9,30.00,WNW,288,22.0,30.0,29,0.00,,---,0.00,VWS V14.01,2013-04-02 21:19:00,
2013-04-02 17:24:00,45.4,17.3,30.00,West,262,12.0,30.0,32,0.00,,---,0.00,VWS V14.01,2013-04-02 21:24:00,
2013-04-02 17:29:00,45.5,18.8,30.00,SW,235,11.0,30.0,34,0.00,,---,0.00,VWS V14.01,2013-04-02 21:29:00,
2013-04-02 17:30:00,45.5,18.8,30.00,WSW,250,14.0,30.0,34,0.00,,---,0.00,VWS V14.01,2013-04-02 21:30:00,
2013-04-02 17:34:00,45.5,17.4,30.00,WSW,239,11.0,21.0,32,0.00,,---,0.00,VWS V14.01,2013-04-02 21:34:00,
2013-04-02 17:39:00,45.4,16.5,30.01,West,274,10.0,21.0,31,0.00,,---,0.00,VWS V14.01,2013-04-02 21:39:00,
2013-04-02 17:44:00,45.3,15.7,30.01,West,269,17.0,21.0,30,0.00,,---,0.00,VWS V14.01,2013-04-02 21:44:00,
2013-04-02 17:50:00,45.5,16.6,30.01,SW,230,13.0,21.0,31,0.00,,---,0.00,VWS V14.01,2013-04-02 21:50:00,
2013-04-02 17:55:00,45.4,17.3,30.01,West,264,25.0,25.0,32,0.00,,---,0.00,VWS V14.01,2013-04-02 21:55:00,
2013-04-02 18:00:00,45.2,18.5,30.02,North,349,11.0,26.0,34,0.00,,---,0.00,VWS V14.01,2013-04-02 22:00:00,
2013-04-02 18:05:00,45.2,17.1,30.02,WSW,248,15.0,22.0,32,0.00,,---,0.00,VWS V14.01,2013-04-02 22:05:00,
2013-04-02 18:10:00,45.0,16.9,30.02,WNW,286,13.0,22.0,32,0.00,,---,0.00,VWS V14.01,2013-04-02 22:10:00,
2013-04-02 18:25:00,44.9,17.6,30.03,West,266,10.0,22.0,33,0.00,,---,0.00,VWS V14.01,2013-04-02 22:25:00,
2013-04-02 18:32:00,44.6,17.3,30.03,SSW,201,10.0,23.0,33,0.00,,---,0.00,VWS V14.01,2013-04-02 22:32:00,
2013-04-02 18:52:00,44.1,18.2,30.03,WSW,250,11.0,21.0,35,0.00,,---,0.00,VWS V14.01,2013-04-02 22:52:00,
2013-04-02 18:57:00,43.9,19.3,30.03,NW,307,17.0,21.0,37,0.00,,---,0.00,VWS V14.01,2013-04-02 22:57:00,
2013-04-02 19:02:00,43.8,17.3,30.03,WSW,258,17.0,18.0,34,0.00,,---,0.00,VWS V14.01,2013-04-02 23:02:00,
2013-04-02 19:08:00,43.6,19.1,30.04,West,279,15.0,18.0,37,0.00,,---,0.00,VWS V14.01,2013-04-02 23:08:00,
2013-04-02 19:13:00,43.4,18.2,30.04,WSW,240,14.0,18.0,36,0.00,,---,0.00,VWS V14.01,2013-04-02 23:13:00,
2013-04-02 19:18:00,43.1,19.2,30.04,WNW,288,10.0,18.0,38,0.00,,---,0.00,VWS V14.01,2013-04-02 23:18:00,
2013-04-02 19:23:00,42.9,17.1,30.04,WNW,301,12.0,22.0,35,0.00,,---,0.00,VWS V14.01,2013-04-02 23:23:00,
2013-04-02 19:28:00,42.8,17.7,30.04,West,259,13.0,22.0,36,0.00,,---,0.00,VWS V14.01,2013-04-02 23:28:00,
2013-04-02 19:33:00,42.5,19.9,30.05,West,259,9.0,14.0,40,0.00,,---,0.00,VWS V14.01,2013-04-02 23:33:00,
2013-04-02 19:38:00,42.4,19.2,30.05,West,279,8.0,15.0,39,0.00,,---,0.00,VWS V14.01,2013-04-02 23:38:00,
2013-04-02 19:43:00,42.2,19.6,30.05,West,262,10.0,15.0,40,0.00,,---,0.00,VWS V14.01,2013-04-02 23:43:00,
2013-04-02 19:48:00,42.0,19.5,30.05,West,268,8.0,15.0,40,0.00,,---,0.00,VWS V14.01,2013-04-02 23:48:00,
2013-04-02 19:53:00,41.8,19.8,30.06,West,275,8.0,15.0,41,0.00,,---,0.00,VWS V14.01,2013-04-02 23:53:00,
2013-04-02 19:58:00,41.7,19.8,30.06,West,270,6.0,15.0,41,0.00,,---,0.00,VWS V14.01,2013-04-02 23:58:00,
2013-04-02 20:03:00,41.5,20.1,30.06,West,278,6.0,11.0,42,0.00,,---,0.00,VWS V14.01,2013-04-03 00:03:00,
2013-04-02 20:08:00,41.3,19.4,30.06,WSW,245,9.0,12.0,41,0.00,,---,0.00,VWS V14.01,2013-04-03 00:08:00,
2013-04-02 20:13:00,41.2,19.9,30.07,West,277,8.0,12.0,42,0.00,,---,0.00,VWS V14.01,2013-04-03 00:13:00,
2013-04-02 20:18:00,41.0,20.8,30.07,WNW,285,7.0,12.0,44,0.00,,---,0.00,VWS V14.01,2013-04-03 00:18:00,
2013-04-02 20:23:00,41.0,20.2,30.07,West,259,7.0,12.0,43,0.00,,---,0.00,VWS V14.01,2013-04-03 00:23:00,
2013-04-02 20:28:00,41.0,18.5,30.07,West,268,8.0,12.0,40,0.00,,---,0.00,VWS V14.01,2013-04-03 00:28:00,
2013-04-02 20:33:00,41.0,19.7,30.08,West,261,7.0,12.0,42,0.00,,---,0.00,VWS V14.01,2013-04-03 00:33:00,
2013-04-02 20:38:00,40.9,20.1,30.08,West,261,7.0,12.0,43,0.00,,---,0.00,VWS V14.01,2013-04-03 00:38:00,
2013-04-02 20:43:00,40.7,19.4,30.08,WNW,289,6.0,12.0,42,0.00,,---,0.00,VWS V14.01,2013-04-03 00:43:00,
2013-04-02 20:48:00,40.7,20.0,30.08,West,269,4.0,12.0,43,0.00,,---,0.00,VWS V14.01,2013-04-03 00:48:00,
2013-04-02 20:53:00,40.6,20.4,30.08,West,278,5.0,12.0,44,0.00,,---,0.00,VWS V14.01,2013-04-03 00:53:00,
2013-04-02 20:59:00,40.3,20.7,30.08,WNW,285,7.0,12.0,45,0.00,,---,0.00,VWS V14.01,2013-04-03 00:59:00,
2013-04-02 21:04:00,40.2,20.6,30.09,West,276,7.0,10.0,45,0.00,,---,0.00,VWS V14.01,2013-04-03 01:04:00,
2013-04-02 21:09:00,40.1,20.5,30.09,WNW,282,8.0,10.0,45,0.00,,---,0.00,VWS V14.01,2013-04-03 01:09:00,
2013-04-02 21:14:00,40.1,20.5,30.09,WNW,290,6.0,10.0,45,0.00,,---,0.00,VWS V14.01,2013-04-03 01:14:00,
2013-04-02 21:19:00,40.2,20.6,30.09,West,270,6.0,13.0,45,0.00,,---,0.00,VWS V14.01,2013-04-03 01:19:00,
2013-04-02 21:24:00,40.2,21.1,30.09,North,349,6.0,13.0,46,0.00,,---,0.00,VWS V14.01,2013-04-03 01:24:00,
2013-04-02 21:29:00,40.2,20.6,30.10,West,265,6.0,13.0,45,0.00,,---,0.00,VWS V14.01,2013-04-03 01:29:00,
2013-04-02 21:34:00,40.2,20.0,30.10,SW,234,8.0,11.0,44,0.00,,---,0.00,VWS V14.01,2013-04-03 01:34:00,
2013-04-02 21:39:00,40.2,20.6,30.10,WSW,244,6.0,12.0,45,0.00,,---,0.00,VWS V14.01,2013-04-03 01:39:00,
2013-04-02 21:44:00,40.2,21.1,30.10,WSW,243,7.0,12.0,46,0.00,,---,0.00,VWS V14.01,2013-04-03 01:44:00,
2013-04-02 21:49:00,40.0,21.4,30.10,WNW,282,8.0,12.0,47,0.00,,---,0.00,VWS V14.01,2013-04-03 01:49:00,
2013-04-02 21:54:00,39.7,22.1,30.10,WNW,285,6.0,12.0,49,0.00,,---,0.00,VWS V14.01,2013-04-03 01:54:00,
2013-04-02 21:59:00,39.5,22.9,30.10,SW,231,10.0,12.0,51,0.00,,---,0.00,VWS V14.01,2013-04-03 01:59:00,
2013-04-02 22:04:00,39.4,22.3,30.10,West,276,5.0,10.0,50,0.00,,---,0.00,VWS V14.01,2013-04-03 02:04:00,
2013-04-02 22:09:00,39.5,21.9,30.10,WSW,243,5.0,12.0,49,0.00,,---,0.00,VWS V14.01,2013-04-03 02:09:00,
2013-04-02 22:14:00,39.3,21.3,30.10,West,260,9.0,12.0,48,0.00,,---,0.00,VWS V14.01,2013-04-03 02:14:00,
2013-04-02 22:19:00,39.3,22.2,30.10,West,259,9.0,12.0,50,0.00,,---,0.00,VWS V14.01,2013-04-03 02:19:00,
2013-04-02 22:24:00,39.3,21.8,30.11,West,274,7.0,12.0,49,0.00,,---,0.00,VWS V14.01,2013-04-03 02:24:00,
2013-04-02 22:29:00,39.1,21.6,30.11,WSW,256,9.0,12.0,49,0.00,,---,0.00,VWS V14.01,2013-04-03 02:29:00,
2013-04-02 22:34:00,39.1,21.6,30.11,West,276,6.0,11.0,49,0.00,,---,0.00,VWS V14.01,2013-04-03 02:34:00,
2013-04-02 22:39:00,39.1,20.6,30.11,West,276,9.0,11.0,47,0.00,,---,0.00,VWS V14.01,2013-04-03 02:39:00,
2013-04-02 22:44:00,39.1,20.6,30.11,WNW,293,6.0,11.0,47,0.00,,---,0.00,VWS V14.01,2013-04-03 02:44:00,
2013-04-02 22:49:00,39.0,20.5,30.11,West,259,8.0,12.0,47,0.00,,---,0.00,VWS V14.01,2013-04-03 02:49:00,
2013-04-02 22:54:00,38.9,20.4,30.11,WNW,298,7.0,12.0,47,0.00,,---,0.00,VWS V14.01,2013-04-03 02:54:00,
2013-04-02 22:59:00,38.8,19.8,30.11,WSW,257,8.0,15.0,46,0.00,,---,0.00,VWS V14.01,2013-04-03 02:59:00,
2013-04-02 23:04:00,38.7,20.2,30.11,WSW,257,9.0,11.0,47,0.00,,---,0.00,VWS V14.01,2013-04-03 03:04:00,
2013-04-02 23:09:00,38.5,21.0,30.11,NW,316,7.0,12.0,49,0.00,,---,0.00,VWS V14.01,2013-04-03 03:09:00,
2013-04-02 23:14:00,38.5,20.0,30.11,WNW,282,9.0,13.0,47,0.00,,---,0.00,VWS V14.01,2013-04-03 03:14:00,
2013-04-02 23:19:00,38.5,20.0,30.11,West,264,7.0,15.0,47,0.00,,---,0.00,VWS V14.01,2013-04-03 03:19:00,
2013-04-02 23:24:00,38.3,19.9,30.11,West,260,6.0,15.0,47,0.00,,---,0.00,VWS V14.01,2013-04-03 03:24:00,
2013-04-02 23:29:00,38.1,19.7,30.11,West,279,7.0,15.0,47,0.00,,---,0.00,VWS V14.01,2013-04-03 03:29:00,
2013-04-02 23:35:00,37.9,20.5,30.11,WSW,252,10.0,11.0,49,0.00,,---,0.00,VWS V14.01,2013-04-03 03:35:00,
2013-04-02 23:40:00,37.8,20.8,30.11,WNW,283,8.0,12.0,50,0.00,,---,0.00,VWS V14.01,2013-04-03 03:40:00,
2013-04-02 23:45:00,37.8,20.8,30.11,WSW,250,4.0,12.0,50,0.00,,---,0.00,VWS V14.01,2013-04-03 03:45:00,
2013-04-02 23:50:00,37.8,19.9,30.11,WNW,282,8.0,13.0,48,0.00,,---,0.00,VWS V14.01,2013-04-03 03:50:00,
2013-04-02 23:55:00,38.1,20.6,30.11,WNW,301,6.0,13.0,49,0.00,,---,0.00,VWS V14.01,2013-04-03 03:55:00,